TimeEDT,TemperatureF,Dew PointF,Humidity,Sea Level PressureIn,VisibilityMPH,Wind Direction,Wind SpeedMPH,Gust SpeedMPH,PrecipitationIn,Events,Conditions,WindDirDegrees,DateUTC
12:14 AM,36.3,35.4,97,30.09,3.0,East,10.4,-,N/A,Rain,Light Rain,90,2013-04-18 04:14:00
12:35 AM,36.5,35.8,97,30.08,5.0,East,8.1,-,N/A,,Overcast,100,2013-04-18 04:35:00
12:54 AM,36.5,36.3,99,30.06,7.0,East,10.4,-,N/A,,Overcast,100,2013-04-18 04:54:00
1:15 AM,36.7,36.5,99,30.05,10.0,East,9.2,-,N/A,,Overcast,90,2013-04-18 05:15:00
1:34 AM,36.9,36.3,98,30.04,10.0,East,8.1,-,N/A,,Overcast,100,2013-04-18 05:34:00
1:54 AM,37.0,36.5,98,30.02,10.0,East,9.2,-,N/A,,Overcast,90,2013-04-18 05:54:00
2:15 AM,37.4,36.9,98,30.00,10.0,East,10.4,-,N/A,,Overcast,100,2013-04-18 06:15:00
2:34 AM,37.6,36.9,97,29.99,10.0,East,11.5,-,N/A,,Overcast,100,2013-04-18 06:34:00
2:54 AM,37.6,36.7,97,29.97,10.0,ESE,12.7,-,N/A,,Overcast,110,2013-04-18 06:54:00
3:15 AM,37.9,36.9,96,29.95,10.0,ESE,11.5,-,N/A,,Overcast,110,2013-04-18 07:15:00
3:34 AM,38.5,37.0,95,29.94,10.0,ESE,12.7,-,N/A,,Overcast,110,2013-04-18 07:34:00
3:54 AM,38.8,37.4,95,29.92,10.0,East,13.8,-,N/A,,Overcast,100,2013-04-18 07:54:00
4:15 AM,38.8,37.2,94,29.90,10.0,ESE,12.7,-,N/A,,Overcast,110,2013-04-18 08:15:00
4:34 AM,39.2,37.4,93,29.88,10.0,ESE,13.8,-,N/A,,Overcast,110,2013-04-18 08:34:00
4:55 AM,39.2,37.4,93,29.85,10.0,East,15.0,-,N/A,,Overcast,100,2013-04-18 08:55:00
5:14 AM,39.2,37.4,93,29.84,10.0,East,13.8,-,N/A,,Overcast,100,2013-04-18 09:14:00
5:34 AM,39.2,37.9,95,29.83,7.0,ESE,13.8,-,N/A,Rain,Light Rain,110,2013-04-18 09:34:00
5:54 AM,38.8,38.3,98,29.82,3.0,East,15.0,19.6,N/A,,Overcast,100,2013-04-18 09:54:00
6:14 AM,38.7,38.3,99,29.81,3.0,ESE,13.8,-,N/A,,Unknown,110,2013-04-18 10:14:00
6:34 AM,38.5,38.5,100,29.79,5.0,East,16.1,-,N/A,,Overcast,100,2013-04-18 10:34:00
6:54 AM,38.7,38.7,100,29.77,4.0,ESE,16.1,-,N/A,Rain,Light Rain,110,2013-04-18 10:54:00
7:15 AM,38.8,38.8,100,29.76,4.0,ESE,17.3,-,N/A,,Unknown,110,2013-04-18 11:15:00
7:34 AM,38.5,38.5,100,29.74,7.0,East,13.8,-,N/A,Rain,Light Rain,100,2013-04-18 11:34:00
7:55 AM,38.7,38.7,100,29.73,4.0,ESE,13.8,-,N/A,Rain,Light Rain,110,2013-04-18 11:55:00
8:15 AM,38.8,38.8,100,29.71,7.0,ESE,10.4,-,N/A,,Overcast,110,2013-04-18 12:15:00
8:34 AM,39.0,39.0,100,29.70,10.0,East,10.4,-,N/A,,Overcast,100,2013-04-18 12:34:00
8:55 AM,39.6,39.6,100,29.69,10.0,East,6.9,-,N/A,,Overcast,100,2013-04-18 12:55:00
9:15 AM,39.6,39.4,99,29.68,10.0,ESE,10.4,-,N/A,,Overcast,110,2013-04-18 13:15:00
9:34 AM,39.6,39.2,99,29.70,10.0,SE,5.8,-,N/A,,Overcast,130,2013-04-18 13:34:00
9:55 AM,40.1,39.7,99,29.70,10.0,East,5.8,-,N/A,,Overcast,100,2013-04-18 13:55:00
10:14 AM,40.3,40.1,99,29.69,7.0,East,3.5,-,N/A,,Drizzle,90,2013-04-18 14:14:00
10:34 AM,40.3,40.3,100,29.68,2.5,NE,3.5,-,N/A,Rain,Rain,50,2013-04-18 14:34:00
10:55 AM,40.8,40.8,100,29.68,3.0,North,3.5,-,N/A,Rain,Rain,360,2013-04-18 14:55:00
11:14 AM,40.3,40.3,100,29.67,4.0,North,6.9,-,N/A,,Light Drizzle,10,2013-04-18 15:14:00
11:34 AM,40.3,40.3,100,29.68,4.0,NE,3.5,-,N/A,Rain,Rain,40,2013-04-18 15:34:00
11:55 AM,40.1,40.1,100,29.65,4.0,East,8.1,-,N/A,Rain,Rain,80,2013-04-18 15:55:00
12:14 PM,39.7,39.7,100,29.64,7.0,East,8.1,-,N/A,Rain,Rain,90,2013-04-18 16:14:00
12:34 PM,40.1,40.1,100,29.63,7.0,East,8.1,-,N/A,Rain,Rain,100,2013-04-18 16:34:00
12:54 PM,40.3,40.3,100,29.60,5.0,ESE,8.1,-,N/A,Rain,Rain,110,2013-04-18 16:54:00
1:14 PM,40.3,40.3,100,29.58,4.0,ESE,6.9,-,N/A,Rain,Light Rain,120,2013-04-18 17:14:00
1:35 PM,41.2,41.2,100,29.57,5.0,ESE,11.5,-,N/A,Rain,Light Rain,110,2013-04-18 17:35:00
1:54 PM,41.9,41.9,100,29.55,10.0,ESE,9.2,-,N/A,Rain,Light Rain,110,2013-04-18 17:54:00
2:14 PM,42.8,42.8,100,29.55,7.0,ESE,9.2,-,N/A,,Mostly Cloudy,110,2013-04-18 18:14:00
2:35 PM,43.5,43.5,100,29.57,10.0,ESE,5.8,-,N/A,,Overcast,120,2013-04-18 18:35:00
2:54 PM,44.1,44.1,100,29.58,10.0,East,5.8,-,N/A,,Overcast,100,2013-04-18 18:54:00
3:14 PM,44.4,44.1,99,29.57,10.0,East,5.8,-,N/A,,Overcast,80,2013-04-18 19:14:00
3:35 PM,45.1,44.6,98,29.56,10.0,East,6.9,-,N/A,,Overcast,100,2013-04-18 19:35:00
3:54 PM,44.8,44.1,97,29.56,10.0,ESE,6.9,-,N/A,,Overcast,110,2013-04-18 19:54:00
4:35 PM,45.7,45.0,97,29.57,10.0,East,4.6,-,N/A,,Overcast,90,2013-04-18 20:35:00
5:14 PM,43.7,43.5,99,29.57,10.0,WNW,4.6,-,N/A,,Overcast,290,2013-04-18 21:14:00
5:35 PM,43.7,43.5,99,29.55,10.0,NW,3.5,-,N/A,,Overcast,320,2013-04-18 21:35:00
5:54 PM,44.4,43.5,97,29.58,10.0,Calm,Calm,-,N/A,,Overcast,0,2013-04-18 21:54:00
6:15 PM,41.7,40.3,95,29.57,10.0,NNW,4.6,-,N/A,,Overcast,340,2013-04-18 22:15:00
6:20 PM,39.7,38.8,97,29.57,10.0,NNW,4.6,-,N/A,,Overcast,340,2013-04-18 22:20:00
7:02 PM,39.2,39.2,100,29.56,2.5,Calm,Calm,-,N/A,,Overcast,0,2013-04-18 23:02:00
7:22 PM,41.0,41.0,100,29.56,3.0,East,4.6,-,N/A,,Overcast,100,2013-04-18 23:22:00
7:46 PM,41.0,41.0,100,29.55,4.0,ESE,4.6,-,N/A,,Overcast,110,2013-04-18 23:46:00
8:02 PM,41.0,41.0,100,29.55,2.0,East,3.5,-,N/A,,Overcast,100,2013-04-19 00:02:00
8:21 PM,42.8,42.8,100,29.53,2.0,ESE,5.8,-,N/A,,Overcast,110,2013-04-19 00:21:00
8:42 PM,42.8,42.8,100,29.53,5.0,ESE,5.8,-,N/A,,Overcast,120,2013-04-19 00:42:00
9:05 PM,42.8,42.8,100,29.51,1.0,East,6.9,-,N/A,,Overcast,90,2013-04-19 01:05:00
9:22 PM,42.8,42.8,100,29.49,0.5,East,5.8,-,N/A,Fog,Fog,100,2013-04-19 01:22:00
9:42 PM,41.0,41.0,100,29.49,0.8,SE,5.8,-,N/A,,Overcast,130,2013-04-19 01:42:00
10:01 PM,44.6,44.6,100,29.48,7.0,ESE,9.2,-,N/A,,Overcast,110,2013-04-19 02:01:00
10:22 PM,44.6,44.6,100,29.46,10.0,ESE,10.4,-,N/A,,Overcast,110,2013-04-19 02:22:00
10:43 PM,44.6,44.6,100,29.44,10.0,ESE,12.7,-,N/A,,Overcast,110,2013-04-19 02:43:00
11:02 PM,44.6,44.6,100,29.45,10.0,ESE,10.4,-,N/A,,Mostly Cloudy,120,2013-04-19 03:02:00
11:22 PM,44.6,44.6,100,29.41,10.0,ESE,11.5,-,N/A,,Mostly Cloudy,120,2013-04-19 03:22:00
11:43 PM,46.4,46.4,100,29.38,10.0,ESE,11.5,-,N/A,,Overcast,110,2013-04-19 03:43:00